Location: Bronnegerveen
(52.9548°N, 6.8388°E)
Time: 02:51:57
(UTC+00:00)

Cosmos 2098 Rocket - Pass Details

Date: 15 June 2025
Orbit: 351 x 915 km, 82.9° (Epoch: 07 July)

Event Time Altitude Azimuth Distance (km) Brightness Sun altitude
Rises 01:51:58 0° 349° (N) 2,854 7.3 -8.0°
Reaches altitude 10° 01:54:22 10° 350° (N) 1,847 6.3 -7.8°
Maximum altitude 01:58:22 87° 76° (ENE) 494 2.6 -7.5°
Drops below altitude 10° 02:01:43 10° 170° (S) 1,545 4.7 -7.2°
Enters shadow 02:03:07 - 170° (S) 2,142 5.4 -7.1°
